User: anonymous   Login
Location: Unspecified
(0.0000°N, 0.0000°E)
Time: 18:24:42
(UTC+00:00)
Language:

Altair - Orbit

View from above orbital plane
View from above orbital plane
View from above satellite
View from above satellite

Ground track
Ground track

The orbit data is extracted from the following two-line orbital elements,

1    50U 60009B   20017.62004352 -.00000094 +00000-0 -86882-4 0  9993
2    50 047.2289 232.5104 0113255 233.2322 125.8027 12.20109069651681
Epoch (UTC): 17 January 2020 14:52:51
Eccentricity: 0.0113255
inclination: 47.2289°
perigee height: 1502 km
apogee height: 1682 km
right ascension of ascending node: 232.5104°
argument of perigee: 233.2322°
revolutions per day: 12.20109069
mean anomaly at epoch: 125.8027°
orbit number at epoch: 65168

The dashed part of the orbit path shows where the satellite is in the earth's shadow,  

DLR